Flag for Germany Weather past 2 weeks in Dachau, Bavaria, Germany

Now
55 °F

Passing clouds.


Feels Like: 54 °F
Forecast: 46 / 62 °F
Wind: 7 mph from West

Location: Munich / Franz Josef Strauss Airport

Current Time: Sep 4, 2015 at 3:39:47 AM

Latest Report: Sep 4, 2015 at 3:20 AM


Visibility: N/A

Pressure: 30.01 "Hg (28.26 "Hg at 502m altitude)

Humidity: 94%

Dew point: 54 °F

Location of DachauLocation

Historic Weather in Dachau — Graph

°F

Dachau temperature yesterday

Maximum temperature yesterday: 64 °F (at 2:20 PM)
Minimum temperature yesterday: 54 °F (at 1:50 AM)
Average temperature yesterday: 58 °F

Past Weeks' High & Low Weather Summary

 TemperatureHumidityPressure
High91 °F (Aug 30, 3:50 PM)100% (Aug 21, 3:50 AM)30.30 "Hg (Aug 21, 3:50 AM)
Low45 °F (Aug 22, 6:20 AM)24% (Aug 26, 5:20 PM)29.71 "Hg (Aug 24, 4:50 PM)
Average66 °F72%30.04 "Hg
* Reported Aug 20 2:20 AM — Sep 4 2:20 AM, Dachau, Weather by CustomWeather, © 2015

Note: Actual official high and low records may vary slightly from our data, if they occured in-between our weather recording intervals... More about our weather records

Advertising

Dachau weather history for previous 24 hours

 ConditionsComfort  
Time TempWeatherWind HumidityBarometerVisibility
2:20 AM
Fri, Sep 4
55 °FOvercast.7 mph94%30.01 "HgN/A
1:50 AM55 °FLight rain. Mostly cloudy.8 mph100%30.01 "HgN/A
1:20 AM57 °FLight rain. Mostly cloudy.10 mph94%30.01 "HgN/A
12:50 AM57 °FClear.5 mph94%30.01 "Hg10 mi
12:20 AM57 °FClear.7 mph94%30.01 "Hg5 mi
11:20 PM
Thu, Sep 3
57 °FFog.7 mph94%30.01 "Hg3 mi
10:50 PM57 °FLight rain. Fog.9 mph94%30.01 "Hg3 mi
10:20 PM57 °FLight rain. Fog.7 mph94%30.01 "Hg3 mi
9:50 PM57 °FOvercast.8 mph94%30.01 "Hg4 mi
9:20 PM57 °FLight rain. Low clouds.9 mph94%30.01 "Hg4 mi
8:50 PM57 °FLight rain. More clouds than sun.9 mph100%29.98 "Hg3 mi
8:20 PM59 °FLight rain. More clouds than sun.5 mph94%29.98 "Hg3 mi
7:50 PM59 °FLight rain. More clouds than sun.3 mph94%29.98 "Hg3 mi
7:20 PM59 °FLight rain. Partly sunny.1 mph94%29.95 "Hg3 mi
6:50 PM59 °FLight rain. Mostly cloudy.3 mph94%29.98 "Hg3 mi
6:20 PM59 °FLight rain. More clouds than sun.6 mph94%29.98 "Hg3 mi
5:50 PM59 °FDrizzle. More clouds than sun.7 mph94%29.95 "Hg3 mi
5:20 PM59 °FDrizzle. More clouds than sun.6 mph94%29.95 "Hg3 mi
4:50 PM61 °FDrizzle. More clouds than sun.8 mph88%29.95 "Hg4 mi
4:20 PM61 °FLight rain. Broken clouds.6 mph88%29.95 "Hg4 mi
3:50 PM63 °FThundershowers. Broken clouds.6 mph83%29.95 "Hg5 mi
3:20 PM63 °FSprinkles. Broken clouds.8 mph83%29.95 "HgN/A
2:50 PM64 °FBroken clouds.3 mph78%29.95 "HgN/A
2:20 PM64 °FBroken clouds.3 mph78%29.95 "HgN/A
1:50 PM63 °FBroken clouds.5 mph83%29.95 "HgN/A
1:20 PM63 °FBroken clouds.1 mph83%29.95 "HgN/A
12:50 PM63 °FLight rain. More clouds than sun.3 mph83%29.95 "HgN/A
12:20 PM63 °FLight rain. More clouds than sun.2 mph77%29.98 "HgN/A
11:50 AM61 °FPartly sunny.2 mph83%29.98 "HgN/A
11:20 AM61 °FBroken clouds.3 mph88%29.98 "Hg6 mi
10:50 AM59 °FPartly sunny.2 mph94%29.98 "Hg6 mi
10:20 AM59 °FDrizzle. Broken clouds.2 mph94%29.98 "Hg4 mi
9:50 AM59 °FDrizzle. Partly sunny.3 mph94%29.98 "Hg4 mi
9:20 AM59 °FDrizzle. Partly sunny.2 mph94%29.98 "Hg4 mi
8:50 AM57 °FDrizzle. Fog.6 mph100%29.98 "Hg3 mi
8:20 AM57 °FDrizzle. Fog.2 mph94%29.98 "Hg3 mi
7:50 AM57 °FDrizzle. Fog.3 mph94%29.95 "Hg2 mi
7:20 AM57 °FDrizzle. Fog.2 mph94%29.95 "Hg2 mi
6:20 AM57 °FDrizzle. Fog.5 mph94%29.95 "Hg2 mi
5:20 AM57 °FDrizzle. Fog.3 mph94%29.98 "Hg2 mi
4:50 AM55 °FFog.6 mph100%29.98 "Hg2 mi
4:20 AM55 °FFog.5 mph100%29.98 "Hg2 mi
3:50 AM55 °FFog.2 mph100%29.98 "Hg2 mi
3:20 AM55 °FPartly cloudy.5 mph94%29.98 "Hg3 mi
Weather by CustomWeather, © 2015

See weather overviewHow to use our weather pages